Location: Rotheul
(50.2849°N, 11.2349°E)
Time: 09:27:36
(UTC+01:00)

ISS - Visible Passes

Search period start: 17 December 2018 00:00
Search period end: 27 December 2018 00:00
Orbit: 401 x 408 km, 51.6° (Epoch: 18 December)

Date Brightness Start Highest point End Pass type
(mag) Time Alt. Az. Time Alt. Az. Time Alt. Az.
22 Dec -0.1 07:06:27 10° SSE 07:07:10 11° SE 07:07:53 10° ESE visible
24 Dec -1.0 06:56:18 10° SSW 06:58:47 20° SE 07:01:17 10° E visible
25 Dec -0.7 06:05:14 10° SSE 06:06:45 13° SE 06:08:16 10° ESE visible
26 Dec -2.2 06:47:26 10° SW 06:50:29 35° SSE 06:53:32 10° E visible
